South Hill, VA

12:22 AM EST on November 19, 2017 (GMT -0500)
Mecklenburg-Brunswick Regional

Weather History for KAVC - October, 2012

Change the Weather History Date:

Saturday, October 20, 2012

  Actual Average (KEMV) Record (KEMV)
Temperature  
Mean Temperature 56 °F -  
Max Temperature 69 °F 69 °F 84 °F (2016)
Min Temperature 44 °F 43 °F 26 °F (1992)
Degree Days  
Heating Degree Days 8    
Growing Degree Days 6 (Base 50)    
Moisture  
Dew Point 45 °F    
Average Humidity 69    
Maximum Humidity 100    
Minimum Humidity 43    
Precipitation  
Precipitation 0.00 in - - ()
Sea Level Pressure  
Sea Level Pressure 29.84 in    
Wind  
Wind Speed 4 mph (WSW)    
Max Wind Speed 10 mph    
Max Gust Speed -    
Visibility 10 miles    
Events      
Averages and records for this station are not official NWS values.
T = Trace of Precipitation, MM = Missing Value Source: NWS Daily Summary

Daily Weather History Graph

Daily Weather History Graph

Search for Another Location

Airport or City:

Trip Planner

Search our weather history database for the weather conditions in past years. The results will help you decide how hot, cold, wet, or windy it might be!

Date:

Astronomy

Oct. 20, 2012 Rise Set
Actual Time 7:24 AM EDT 6:28 PM EDT
Civil Twilight 6:58 AM EDT 6:54 PM EDT
Nautical Twilight 6:28 AM EDT 7:24 PM EDT
Astronomical Twilight 5:58 AM EDT 7:54 PM EDT
Moon 12:54 PM EDT (10/20) 11:16 PM EDT (10/20)
Length of Visible Light 11h 56m
Length of Day
11h 03m
Waxing Crescent, 34% of the Moon is Illuminated
Oct 20
Waxing Crescent
Oct 21
First Quarter
Oct 29
Full
Nov 6
Last Quarter
Nov 13
New

Hourly Weather History & Observations

Time (EDT) Temp. Windchill Dew Point Humidity Pressure Visibility Wind Dir Wind Speed Gust Speed Precip Events Conditions
12:15 AM 55.4 °F - 42.8 °F 63% 29.81 in 10.0 mi SW 5.8 mph - N/A   Clear
12:35 AM 53.6 °F - 42.8 °F 67% 29.81 in 10.0 mi SW 4.6 mph - N/A   Clear
12:55 AM 53.6 °F - 42.8 °F 67% 29.80 in 10.0 mi SW 3.5 mph - N/A   Clear
1:15 AM 51.8 °F - 44.6 °F 76% 29.80 in 10.0 mi Calm Calm - N/A   Clear
1:35 AM 46.4 °F - 44.6 °F 93% 29.80 in 10.0 mi Calm Calm - N/A   Clear
1:55 AM 46.4 °F 45.2 °F 44.6 °F 93% 29.80 in 10.0 mi SSW 3.5 mph - N/A   Clear
2:15 AM 51.8 °F - 42.8 °F 71% 29.80 in 10.0 mi SW 5.8 mph - N/A   Clear
2:35 AM 51.8 °F - 42.8 °F 71% 29.80 in 10.0 mi SW 6.9 mph - N/A   Clear
2:55 AM 53.6 °F - 42.8 °F 67% 29.79 in 10.0 mi WSW 5.8 mph - N/A   Clear
3:15 AM 53.6 °F - 42.8 °F 67% 29.79 in 10.0 mi WSW 5.8 mph - N/A   Clear
3:35 AM 53.6 °F - 42.8 °F 67% 29.79 in 10.0 mi SSW 3.5 mph - N/A   Clear
3:55 AM 51.8 °F - 42.8 °F 71% 29.79 in 10.0 mi South 3.5 mph - N/A   Clear
4:15 AM 46.4 °F 44.3 °F 44.6 °F 93% 29.80 in 10.0 mi SW 4.6 mph - N/A   Clear
4:35 AM 48.2 °F - 42.8 °F 82% 29.80 in 10.0 mi SSW 3.5 mph - N/A   Clear
4:55 AM 46.4 °F - 44.6 °F 93% 29.80 in 10.0 mi Calm Calm - N/A   Clear
5:15 AM 44.6 °F 43.1 °F 44.6 °F 100% 29.81 in 10.0 mi SSW 3.5 mph - N/A   Clear
5:35 AM 46.4 °F - 44.6 °F 93% 29.82 in 10.0 mi Calm Calm - N/A   Clear
5:55 AM 44.6 °F 43.1 °F 44.6 °F 100% 29.81 in 10.0 mi SW 3.5 mph - N/A   Clear
6:15 AM 46.4 °F 45.2 °F 44.6 °F 93% 29.82 in 10.0 mi SW 3.5 mph - N/A   Clear
6:35 AM 46.4 °F - 42.8 °F 87% 29.82 in 10.0 mi Calm Calm - N/A   Clear
6:55 AM 46.4 °F - 44.6 °F 93% 29.83 in 10.0 mi Calm Calm - N/A   Clear
7:15 AM 46.4 °F - 42.8 °F 87% 29.83 in 10.0 mi Calm Calm - N/A   Clear
7:35 AM 44.6 °F - 44.6 °F 100% 29.84 in 10.0 mi Calm Calm - N/A   Clear
7:55 AM 44.6 °F - 44.6 °F 100% 29.84 in 10.0 mi Calm Calm - N/A   Clear
8:15 AM 46.4 °F - 46.4 °F 100% 29.85 in 10.0 mi Calm Calm - N/A   Clear
8:35 AM 48.2 °F - 46.4 °F 93% 29.86 in 10.0 mi Calm Calm - N/A   Clear
8:55 AM 51.8 °F - 48.2 °F 88% 29.87 in 10.0 mi Calm Calm - N/A   Clear
9:15 AM 53.6 °F - 48.2 °F 82% 29.86 in 10.0 mi WSW 4.6 mph - N/A   Clear
9:35 AM 55.4 °F - 46.4 °F 72% 29.87 in 10.0 mi West 3.5 mph - N/A   Clear
9:55 AM 57.2 °F - 46.4 °F 67% 29.87 in 10.0 mi West 3.5 mph - N/A   Clear
10:15 AM 60.8 °F - 46.4 °F 59% 29.87 in 10.0 mi NW 3.5 mph - N/A   Clear
10:35 AM 62.6 °F - 46.4 °F 55% 29.87 in 10.0 mi NW 3.5 mph - N/A   Clear
10:55 AM 62.6 °F - 46.4 °F 55% 29.88 in 10.0 mi NW 3.5 mph - N/A   Clear
11:15 AM 64.4 °F - 46.4 °F 52% 29.88 in 10.0 mi Calm Calm - N/A   Clear
11:35 AM 64.4 °F - 46.4 °F 52% 29.87 in 10.0 mi WNW 3.5 mph - N/A   Clear
11:55 AM 66.2 °F - 46.4 °F 49% 29.87 in 10.0 mi WNW 5.8 mph - N/A   Clear
12:15 PM 66.2 °F - 44.6 °F 46% 29.86 in 10.0 mi NW 6.9 mph - N/A   Clear
12:35 PM 66.2 °F - 46.4 °F 49% 29.86 in 10.0 mi WNW 3.5 mph - N/A   Clear
12:55 PM 66.2 °F - 46.4 °F 49% 29.85 in 10.0 mi West 5.8 mph - N/A   Clear
1:15 PM 68.0 °F - 44.6 °F 43% 29.85 in 10.0 mi WNW 3.5 mph - N/A   Clear
1:35 PM 68.0 °F - 46.4 °F 46% 29.85 in 10.0 mi WNW 4.6 mph - N/A   Clear
1:55 PM 69.8 °F - 46.4 °F 43% 29.84 in 10.0 mi West 8.1 mph - N/A   Clear
2:15 PM 69.8 °F - 46.4 °F 43% 29.84 in 10.0 mi SSW 4.6 mph - N/A   Clear
2:35 PM 69.8 °F - 46.4 °F 43% 29.84 in 10.0 mi SSW 5.8 mph - N/A   Clear
2:55 PM 69.8 °F - 46.4 °F 43% 29.84 in 10.0 mi SW 4.6 mph - N/A   Clear
3:15 PM 69.8 °F - 46.4 °F 43% 29.84 in 10.0 mi SW 6.9 mph - N/A   Clear
3:35 PM 69.8 °F - 46.4 °F 43% 29.84 in 10.0 mi SW 10.4 mph - N/A   Clear
3:55 PM 69.8 °F - 46.4 °F 43% 29.84 in 10.0 mi SW 6.9 mph - N/A   Clear
4:15 PM 69.8 °F - 46.4 °F 43% 29.85 in 10.0 mi West 5.8 mph - N/A   Clear
4:35 PM 69.8 °F - 46.4 °F 43% 29.85 in 10.0 mi SW 3.5 mph - N/A   Scattered Clouds
11:55 PM 53.6 °F - 41.0 °F 62% 30.00 in 10.0 mi Calm Calm - N/A   Clear